Time,TemperatureF,DewpointF,PressureIn,WindDirection,WindDirectionDegrees,WindSpeedMPH,WindSpeedGustMPH,Humidity,HourlyPrecipIn,Conditions,Clouds,dailyrainin,SoftwareType,DateUTC
2013-01-22 00:02:00,5.0,-2.0,30.39,West,271,5.0,13.0,73,0.00,,,0.00,,2013-01-22 06:02:00,
2013-01-22 00:12:00,5.0,-2.0,30.39,West,271,5.0,13.0,73,0.00,,,0.00,,2013-01-22 06:12:00,
2013-01-22 00:22:00,5.0,-2.0,30.39,WNW,283,3.0,9.0,73,0.00,,,0.00,,2013-01-22 06:22:00,
2013-01-22 00:32:00,5.0,-2.0,30.39,West,277,4.0,10.0,73,0.00,,,0.00,,2013-01-22 06:32:00,
2013-01-22 00:42:00,5.0,-2.0,30.39,West,277,4.0,10.0,73,0.00,,,0.00,,2013-01-22 06:42:00,
2013-01-22 00:53:00,4.0,-2.0,30.39,SW,219,3.0,9.0,74,0.00,,,0.00,,2013-01-22 06:53:00,
2013-01-22 01:02:00,4.0,-2.0,30.39,West,268,5.0,10.0,74,0.00,,,0.00,,2013-01-22 07:02:00,
2013-01-22 01:12:00,4.0,-2.0,30.39,West,268,5.0,10.0,74,0.00,,,0.00,,2013-01-22 07:12:00,
2013-01-22 01:22:00,4.0,-2.0,30.39,West,272,2.0,10.0,75,0.00,,,0.00,,2013-01-22 07:22:00,
2013-01-22 01:32:00,4.0,-2.0,30.39,SW,229,4.0,7.0,76,0.00,,,0.00,,2013-01-22 07:32:00,
2013-01-22 01:42:00,4.0,-2.0,30.39,SW,229,4.0,7.0,76,0.00,,,0.00,,2013-01-22 07:42:00,
2013-01-22 01:53:00,4.0,-2.0,30.39,WSW,254,3.0,8.0,76,0.00,,,0.00,,2013-01-22 07:53:00,
2013-01-22 02:02:00,4.0,-2.0,30.40,WNW,284,3.0,9.0,75,0.00,,,0.00,,2013-01-22 08:02:00,
2013-01-22 02:12:00,4.0,-2.0,30.40,WNW,284,3.0,9.0,75,0.00,,,0.00,,2013-01-22 08:12:00,
2013-01-22 02:22:00,4.0,-2.0,30.40,West,259,2.0,8.0,75,0.00,,,0.00,,2013-01-22 08:22:00,
2013-01-22 02:32:00,4.0,-2.0,30.40,West,276,3.0,8.0,76,0.00,,,0.00,,2013-01-22 08:32:00,
2013-01-22 02:42:00,4.0,-2.0,30.40,West,276,3.0,8.0,76,0.00,,,0.00,,2013-01-22 08:42:00,
2013-01-22 02:52:00,4.0,-2.0,30.40,West,276,3.0,8.0,76,0.00,,,0.00,,2013-01-22 08:52:00,
2013-01-22 03:02:00,3.0,-2.0,30.41,WSW,258,4.0,8.0,78,0.00,,,0.00,,2013-01-22 09:02:00,
2013-01-22 03:12:00,3.0,-2.0,30.41,WSW,258,4.0,8.0,78,0.00,,,0.00,,2013-01-22 09:12:00,
2013-01-22 03:22:00,3.0,-2.0,30.42,West,281,2.0,6.0,79,0.00,,,0.00,,2013-01-22 09:22:00,
2013-01-22 03:32:00,3.0,-2.0,30.42,West,259,4.0,7.0,79,0.00,,,0.00,,2013-01-22 09:32:00,
2013-01-22 03:42:00,3.0,-2.0,30.42,West,259,4.0,7.0,79,0.00,,,0.00,,2013-01-22 09:42:00,
2013-01-22 03:52:00,3.0,-2.0,30.42,West,259,4.0,7.0,79,0.00,,,0.00,,2013-01-22 09:52:00,
2013-01-22 04:02:00,3.0,-2.0,30.42,WSW,249,1.0,7.0,79,0.00,,,0.00,,2013-01-22 10:02:00,
2013-01-22 04:12:00,3.0,-2.0,30.42,WSW,249,1.0,7.0,79,0.00,,,0.00,,2013-01-22 10:12:00,
2013-01-22 04:22:00,3.0,-2.0,30.41,WNW,295,2.0,5.0,80,0.00,,,0.00,,2013-01-22 10:22:00,
2013-01-22 04:32:00,3.0,-2.0,30.41,West,263,1.0,7.0,80,0.00,,,0.00,,2013-01-22 10:32:00,
2013-01-22 04:42:00,3.0,-2.0,30.41,West,263,1.0,7.0,80,0.00,,,0.00,,2013-01-22 10:42:00,
2013-01-22 04:52:00,3.0,-2.0,30.42,WNW,290,2.0,6.0,79,0.00,,,0.00,,2013-01-22 10:52:00,
2013-01-22 05:02:00,3.0,-2.0,30.42,WNW,290,2.0,6.0,79,0.00,,,0.00,,2013-01-22 11:02:00,
2013-01-22 05:12:00,3.0,-2.0,30.42,WNW,290,2.0,6.0,79,0.00,,,0.00,,2013-01-22 11:12:00,
2013-01-22 05:22:00,2.0,-3.0,30.42,West,263,4.0,8.0,80,0.00,,,0.00,,2013-01-22 11:22:00,
2013-01-22 05:33:00,3.0,-2.0,30.42,West,264,3.0,6.0,80,0.00,,,0.00,,2013-01-22 11:33:00,
2013-01-22 05:43:00,3.0,-2.0,30.42,West,264,3.0,6.0,80,0.00,,,0.00,,2013-01-22 11:43:00,
2013-01-22 05:53:00,2.0,-3.0,30.43,WSW,257,2.0,6.0,80,0.00,,,0.00,,2013-01-22 11:53:00,
2013-01-22 06:03:00,2.0,-3.0,30.44,West,271,3.0,7.0,80,0.00,,,0.00,,2013-01-22 12:03:00,
2013-01-22 06:12:00,2.0,-3.0,30.44,West,271,3.0,7.0,80,0.00,,,0.00,,2013-01-22 12:12:00,
2013-01-22 06:23:00,2.0,-3.0,30.44,West,271,3.0,7.0,80,0.00,,,0.00,,2013-01-22 12:23:00,
2013-01-22 06:33:00,2.0,-3.0,30.44,West,271,3.0,7.0,80,0.00,,,0.00,,2013-01-22 12:33:00,
2013-01-22 06:43:00,3.0,-2.0,30.44,West,261,1.0,8.0,79,0.00,,,0.00,,2013-01-22 12:43:00,
2013-01-22 06:53:00,2.0,-3.0,30.45,West,262,1.0,6.0,79,0.00,,,0.00,,2013-01-22 12:53:00,
2013-01-22 07:04:00,2.0,-3.0,30.45,West,271,3.0,9.0,80,0.00,,,0.00,,2013-01-22 13:04:00,
2013-01-22 07:13:00,2.0,-3.0,30.45,West,271,3.0,9.0,80,0.00,,,0.00,,2013-01-22 13:13:00,
2013-01-22 07:23:00,2.0,-3.0,30.45,WSW,257,2.0,7.0,80,0.00,,,0.00,,2013-01-22 13:23:00,
2013-01-22 07:33:00,2.0,-3.0,30.45,WSW,257,2.0,7.0,80,0.00,,,0.00,,2013-01-22 13:33:00,
2013-01-22 07:43:00,2.0,-3.0,30.45,WSW,257,2.0,7.0,80,0.00,,,0.00,,2013-01-22 13:43:00,
2013-01-22 07:53:00,2.0,-3.0,30.45,West,271,1.0,6.0,80,0.00,,,0.00,,2013-01-22 13:53:00,
2013-01-22 08:03:00,2.0,-3.0,30.46,West,264,4.0,8.0,80,0.00,,,0.00,,2013-01-22 14:03:00,
2013-01-22 08:13:00,2.0,-3.0,30.46,West,264,4.0,8.0,80,0.00,,,0.00,,2013-01-22 14:13:00,
2013-01-22 08:23:00,3.0,-2.0,30.46,NW,306,4.0,8.0,80,0.00,,,0.00,,2013-01-22 14:23:00,
2013-01-22 08:34:00,4.0,-1.0,30.47,NW,321,3.0,8.0,78,0.00,,,0.00,,2013-01-22 14:34:00,
2013-01-22 08:43:00,4.0,-1.0,30.47,NW,321,3.0,8.0,78,0.00,,,0.00,,2013-01-22 14:43:00,
2013-01-22 08:53:00,4.0,-2.0,30.47,NNW,327,7.0,12.0,77,0.00,,,0.00,,2013-01-22 14:53:00,
2013-01-22 09:03:00,4.0,-2.0,30.47,West,260,5.0,10.0,76,0.00,,,0.00,,2013-01-22 15:03:00,
2013-01-22 09:13:00,4.0,-2.0,30.47,West,260,5.0,10.0,76,0.00,,,0.00,,2013-01-22 15:13:00,
2013-01-22 09:23:00,5.0,-1.0,30.47,WNW,285,3.0,11.0,75,0.00,,,0.00,,2013-01-22 15:23:00,
2013-01-22 09:34:00,5.0,-1.0,30.48,NNW,331,4.0,11.0,74,0.00,,,0.00,,2013-01-22 15:34:00,
2013-01-22 09:43:00,5.0,-1.0,30.48,NNW,331,4.0,11.0,74,0.00,,,0.00,,2013-01-22 15:43:00,
2013-01-22 09:52:00,6.0,-1.0,30.48,WSW,245,6.0,11.0,73,0.00,,,0.00,,2013-01-22 15:52:00,
2013-01-22 10:03:00,6.0,-1.0,30.49,NW,319,4.0,11.0,71,0.00,,,0.00,,2013-01-22 16:03:00,
2013-01-22 10:13:00,6.0,-1.0,30.49,NW,319,4.0,11.0,71,0.00,,,0.00,,2013-01-22 16:13:00,
2013-01-22 10:23:00,6.0,-2.0,30.49,WNW,300,6.0,11.0,70,0.00,,,0.00,,2013-01-22 16:23:00,
2013-01-22 10:33:00,7.0,-1.0,30.50,WNW,292,6.0,11.0,69,0.00,,,0.00,,2013-01-22 16:33:00,
2013-01-22 10:43:00,7.0,-1.0,30.50,WNW,292,6.0,11.0,69,0.00,,,0.00,,2013-01-22 16:43:00,
2013-01-22 10:53:00,7.0,-1.0,30.50,WNW,292,6.0,11.0,69,0.00,,,0.00,,2013-01-22 16:53:00,
2013-01-22 11:03:00,8.0,-1.0,30.49,WNW,283,5.0,12.0,65,0.00,,,0.00,,2013-01-22 17:03:00,
2013-01-22 11:13:00,8.0,-1.0,30.49,WNW,283,5.0,12.0,65,0.00,,,0.00,,2013-01-22 17:13:00,
2013-01-22 11:23:00,9.0,-1.0,30.48,WSW,254,7.0,12.0,62,0.00,,,0.00,,2013-01-22 17:23:00,
2013-01-22 11:34:00,10.0,0.0,30.48,West,263,5.0,11.0,62,0.00,,,0.00,,2013-01-22 17:34:00,
2013-01-22 11:43:00,10.0,0.0,30.48,West,263,5.0,11.0,62,0.00,,,0.00,,2013-01-22 17:43:00,
2013-01-22 11:53:00,10.0,-2.0,30.47,NW,311,6.0,13.0,57,0.00,,,0.00,,2013-01-22 17:53:00,
2013-01-22 12:03:00,11.0,-1.0,30.46,WSW,242,5.0,11.0,57,0.00,,,0.00,,2013-01-22 18:03:00,
2013-01-22 12:13:00,11.0,-1.0,30.46,WSW,242,5.0,11.0,57,0.00,,,0.00,,2013-01-22 18:13:00,
2013-01-22 12:23:00,11.0,-3.0,30.46,SW,234,6.0,11.0,53,0.00,,,0.00,,2013-01-22 18:23:00,
2013-01-22 12:33:00,11.0,-2.0,30.46,WNW,289,5.0,11.0,55,0.00,,,0.00,,2013-01-22 18:33:00,
2013-01-22 12:43:00,11.0,-2.0,30.46,WNW,289,5.0,11.0,55,0.00,,,0.00,,2013-01-22 18:43:00,
2013-01-22 12:53:00,12.0,-2.0,30.45,WNW,295,5.0,15.0,52,0.00,,,0.00,,2013-01-22 18:53:00,
2013-01-22 13:03:00,12.0,-2.0,30.45,WNW,295,5.0,15.0,52,0.00,,,0.00,,2013-01-22 19:03:00,
2013-01-22 13:13:00,12.0,-2.0,30.45,WNW,295,5.0,15.0,52,0.00,,,0.00,,2013-01-22 19:13:00,
2013-01-22 13:23:00,13.0,-2.0,30.45,West,268,7.0,14.0,50,0.00,,,0.00,,2013-01-22 19:23:00,
2013-01-22 13:33:00,13.0,-2.0,30.44,WNW,288,8.0,14.0,51,0.00,,,0.00,,2013-01-22 19:33:00,
2013-01-22 13:43:00,13.0,-2.0,30.44,WNW,288,8.0,14.0,51,0.00,,,0.00,,2013-01-22 19:43:00,
2013-01-22 13:53:00,13.0,-2.0,30.44,NW,325,7.0,15.0,51,0.00,,,0.00,,2013-01-22 19:53:00,
2013-01-22 14:03:00,14.0,-1.0,30.42,WSW,250,4.0,13.0,51,0.00,,,0.00,,2013-01-22 20:03:00,
2013-01-22 14:13:00,14.0,-1.0,30.42,WSW,250,4.0,13.0,51,0.00,,,0.00,,2013-01-22 20:13:00,
2013-01-22 14:23:00,14.0,-2.0,30.44,West,277,5.0,13.0,49,0.00,,,0.00,,2013-01-22 20:23:00,
2013-01-22 14:33:00,14.0,-2.0,30.44,WSW,249,7.0,13.0,49,0.00,,,0.00,,2013-01-22 20:33:00,
2013-01-22 14:43:00,14.0,-2.0,30.44,WSW,249,7.0,13.0,49,0.00,,,0.00,,2013-01-22 20:43:00,
2013-01-22 14:53:00,14.0,-3.0,30.43,WNW,288,7.0,14.0,45,0.00,,,0.00,,2013-01-22 20:53:00,
2013-01-22 15:03:00,14.0,-2.0,30.43,West,262,4.0,13.0,47,0.00,,,0.00,,2013-01-22 21:03:00,
2013-01-22 15:13:00,14.0,-2.0,30.43,West,262,4.0,13.0,47,0.00,,,0.00,,2013-01-22 21:13:00,
2013-01-22 15:23:00,15.0,-1.0,30.43,West,265,6.0,10.0,48,0.00,,,0.00,,2013-01-22 21:23:00,
2013-01-22 15:33:00,15.0,-2.0,30.42,West,281,6.0,10.0,47,0.00,,,0.00,,2013-01-22 21:33:00,
2013-01-22 15:43:00,15.0,-2.0,30.42,West,281,6.0,10.0,47,0.00,,,0.00,,2013-01-22 21:43:00,
2013-01-22 15:53:00,14.0,-2.0,30.42,WNW,291,6.0,9.0,48,0.00,,,0.00,,2013-01-22 21:53:00,
2013-01-22 16:03:00,14.0,-2.0,30.42,West,264,2.0,11.0,49,0.00,,,0.00,,2013-01-22 22:03:00,
2013-01-22 16:13:00,14.0,-2.0,30.42,West,264,2.0,11.0,49,0.00,,,0.00,,2013-01-22 22:13:00,
2013-01-22 16:22:00,14.0,-2.0,30.43,WSW,250,3.0,8.0,49,0.00,,,0.00,,2013-01-22 22:22:00,
2013-01-22 16:32:00,14.0,-2.0,30.43,WSW,250,3.0,8.0,49,0.00,,,0.00,,2013-01-22 22:32:00,
2013-01-22 16:43:00,14.0,-1.0,30.42,West,281,4.0,8.0,50,0.00,,,0.00,,2013-01-22 22:43:00,
2013-01-22 16:53:00,14.0,-1.0,30.42,SW,234,5.0,9.0,51,0.00,,,0.00,,2013-01-22 22:53:00,
2013-01-22 17:03:00,14.0,0.0,30.42,West,262,3.0,10.0,52,0.00,,,0.00,,2013-01-22 23:03:00,
2013-01-22 17:12:00,14.0,0.0,30.42,West,262,3.0,10.0,52,0.00,,,0.00,,2013-01-22 23:12:00,
2013-01-22 17:24:00,13.0,-1.0,30.42,WSW,244,4.0,8.0,53,0.00,,,0.00,,2013-01-22 23:24:00,
2013-01-22 17:33:00,13.0,-1.0,30.43,West,261,5.0,9.0,53,0.00,,,0.00,,2013-01-22 23:33:00,
2013-01-22 17:43:00,13.0,-1.0,30.43,West,261,5.0,9.0,53,0.00,,,0.00,,2013-01-22 23:43:00,
2013-01-22 17:52:00,14.0,0.0,30.43,West,271,4.0,8.0,54,0.00,,,0.00,,2013-01-22 23:52:00,
2013-01-22 18:03:00,13.0,0.0,30.42,WSW,245,2.0,6.0,54,0.00,,,0.00,,2013-01-23 00:03:00,
2013-01-22 18:12:00,13.0,0.0,30.42,WSW,245,2.0,6.0,54,0.00,,,0.00,,2013-01-23 00:12:00,
2013-01-22 18:22:00,14.0,0.0,30.42,West,264,3.0,8.0,52,0.00,,,0.00,,2013-01-23 00:22:00,
2013-01-22 18:33:00,14.0,0.0,30.42,West,272,2.0,7.0,53,0.00,,,0.00,,2013-01-23 00:33:00,
2013-01-22 18:43:00,14.0,0.0,30.42,West,272,2.0,7.0,53,0.00,,,0.00,,2013-01-23 00:43:00,
2013-01-22 18:52:00,14.0,0.0,30.43,WNW,292,2.0,8.0,52,0.00,,,0.00,,2013-01-23 00:52:00,
2013-01-22 19:03:00,14.0,0.0,30.42,West,279,3.0,8.0,52,0.00,,,0.00,,2013-01-23 01:03:00,
2013-01-22 19:13:00,14.0,0.0,30.42,West,279,3.0,8.0,52,0.00,,,0.00,,2013-01-23 01:13:00,
2013-01-22 19:23:00,13.0,-1.0,30.42,West,261,2.0,7.0,53,0.00,,,0.00,,2013-01-23 01:23:00,
2013-01-22 19:33:00,13.0,-1.0,30.42,WNW,300,2.0,8.0,53,0.00,,,0.00,,2013-01-23 01:33:00,
2013-01-22 19:43:00,13.0,-1.0,30.42,WNW,300,2.0,8.0,53,0.00,,,0.00,,2013-01-23 01:43:00,
2013-01-22 19:52:00,14.0,0.0,30.42,WNW,291,3.0,6.0,54,0.00,,,0.00,,2013-01-23 01:52:00,
2013-01-22 20:03:00,14.0,1.0,30.42,West,281,2.0,6.0,55,0.00,,,0.00,,2013-01-23 02:03:00,
2013-01-22 20:12:00,14.0,1.0,30.42,West,281,2.0,6.0,55,0.00,,,0.00,,2013-01-23 02:12:00,
2013-01-22 20:23:00,14.0,1.0,30.41,West,269,2.0,6.0,55,0.00,,,0.00,,2013-01-23 02:23:00,
2013-01-22 20:33:00,14.0,0.0,30.42,West,274,2.0,7.0,54,0.00,,,0.00,,2013-01-23 02:33:00,
2013-01-22 20:42:00,14.0,0.0,30.42,West,274,2.0,7.0,54,0.00,,,0.00,,2013-01-23 02:42:00,
2013-01-22 20:53:00,14.0,0.0,30.42,WNW,291,2.0,7.0,54,0.00,,,0.00,,2013-01-23 02:53:00,
2013-01-22 21:03:00,14.0,0.0,30.42,WNW,291,2.0,7.0,54,0.00,,,0.00,,2013-01-23 03:03:00,
2013-01-22 21:12:00,14.0,0.0,30.42,WNW,291,2.0,7.0,54,0.00,,,0.00,,2013-01-23 03:12:00,
2013-01-22 21:23:00,14.0,1.0,30.42,WSW,258,2.0,7.0,55,0.00,,,0.00,,2013-01-23 03:23:00,
2013-01-22 21:33:00,14.0,1.0,30.43,NW,309,2.0,6.0,56,0.00,,,0.00,,2013-01-23 03:33:00,
2013-01-22 21:42:00,14.0,1.0,30.43,NW,309,2.0,6.0,56,0.00,,,0.00,,2013-01-23 03:42:00,
2013-01-22 21:53:00,14.0,1.0,30.43,NW,309,2.0,6.0,56,0.00,,,0.00,,2013-01-23 03:53:00,
2013-01-22 22:03:00,14.0,1.0,30.43,WNW,292,1.0,7.0,56,0.00,,,0.00,,2013-01-23 04:03:00,
2013-01-22 22:12:00,14.0,1.0,30.43,WNW,292,1.0,7.0,56,0.00,,,0.00,,2013-01-23 04:12:00,
2013-01-22 22:23:00,14.0,1.0,30.44,WNW,282,3.0,7.0,56,0.00,,,0.00,,2013-01-23 04:23:00,
2013-01-22 22:33:00,14.0,1.0,30.44,West,278,2.0,6.0,56,0.00,,,0.00,,2013-01-23 04:33:00,
2013-01-22 22:43:00,14.0,1.0,30.44,West,278,2.0,6.0,56,0.00,,,0.00,,2013-01-23 04:43:00,
2013-01-22 22:52:00,14.0,1.0,30.43,West,261,2.0,6.0,56,0.00,,,0.00,,2013-01-23 04:52:00,
2013-01-22 23:03:00,14.0,1.0,30.43,West,269,3.0,7.0,56,0.00,,,0.00,,2013-01-23 05:03:00,
2013-01-22 23:12:00,14.0,1.0,30.43,West,269,3.0,7.0,56,0.00,,,0.00,,2013-01-23 05:12:00,
2013-01-22 23:22:00,14.0,2.0,30.44,NW,320,0.0,4.0,58,0.00,,,0.00,,2013-01-23 05:22:00,
2013-01-22 23:33:00,13.0,1.0,30.43,West,273,0.0,3.0,58,0.00,,,0.00,,2013-01-23 05:33:00,
2013-01-22 23:43:00,13.0,1.0,30.43,West,273,0.0,3.0,58,0.00,,,0.00,,2013-01-23 05:43:00,
2013-01-22 23:52:00,13.0,2.0,30.42,West,259,0.0,4.0,60,0.00,,,0.00,,2013-01-23 05:52:00,